| time (UTC) | temp F | wind direction | speed MPH | gust MPH | rain 1hr in | rain 24hr in | rain mn in | humidity % | barometer mb |
| 20260507164004 | 70 | 66 | 4.0 | 9.0 | 0.00 | 0.00 | 0.00 | 59 | 1009.9 |
| 20260507163504 | 70 | 72 | 3.0 | 9.0 | 0.00 | 0.00 | 0.00 | 59 | 1009.7 |
| 20260507162503 | 70 | 21 | 3.0 | 8.0 | 0.00 | 0.00 | 0.00 | 59 | 1009.7 |
| 20260507162004 | 70 | 39 | 3.0 | 10.0 | 0.00 | 0.00 | 0.00 | 58 | 1009.7 |
| 20260507161504 | 70 | 58 | 5.0 | 15.0 | 0.00 | 0.00 | 0.00 | 58 | 1009.9 |
| 20260507161003 | 71 | 64 | 7.0 | 13.0 | 0.00 | 0.00 | 0.00 | 58 | 1009.7 |
| 20260507160503 | 71 | 64 | 5.0 | 12.0 | 0.00 | 0.00 | 0.00 | 58 | 1009.8 |
| 20260507160003 | 71 | 52 | 4.0 | 9.0 | 0.00 | 0.00 | 0.00 | 57 | 1010.0 |
| 20260507155504 | 71 | 76 | 4.0 | 9.0 | 0.00 | 0.00 | 0.00 | 57 | 1010.0 |
| 20260507155004 | 71 | 45 | 2.0 | 9.0 | 0.00 | 0.00 | 0.00 | 56 | 1010.0 |
| 20260507154504 | 71 | 63 | 6.0 | 12.0 | 0.00 | 0.00 | 0.00 | 55 | 1010.0 |
| 20260507154003 | 71 | 66 | 5.0 | 12.0 | 0.00 | 0.00 | 0.00 | 56 | 1009.8 |
| 20260507153504 | 71 | 62 | 6.0 | 14.0 | 0.00 | 0.00 | 0.00 | 55 | 1009.7 |
| 20260507153004 | 71 | 57 | 4.0 | 15.0 | 0.00 | 0.00 | 0.00 | 56 | 1009.8 |
| 20260507152504 | 71 | 72 | 4.0 | 10.0 | 0.00 | 0.00 | 0.00 | 57 | 1009.9 |
| 20260507152003 | 71 | 55 | 4.0 | 10.0 | 0.00 | 0.00 | 0.00 | 58 | 1010.0 |
| 20260507151503 | 71 | 55 | 3.0 | 8.0 | 0.00 | 0.00 | 0.00 | 58 | 1010.2 |
| 20260507151004 | 71 | 66 | 5.0 | 9.0 | 0.00 | 0.00 | 0.00 | 58 | 1010.3 |
| 20260507150503 | 71 | 60 | 3.0 | 14.0 | 0.00 | 0.00 | 0.00 | 58 | 1010.3 |
| 20260507145503 | 71 | 67 | 3.0 | 12.0 | 0.00 | 0.00 | 0.00 | 59 | 1010.1 |
| 20260507145004 | 72 | 66 | 5.0 | 12.0 | 0.00 | 0.00 | 0.00 | 58 | 1010.1 |
| 20260507144004 | 71 | 44 | 6.0 | 15.0 | 0.00 | 0.00 | 0.00 | 58 | 1010.1 |
| 20260507143503 | 72 | 49 | 5.0 | 12.0 | 0.00 | 0.00 | 0.00 | 58 | 1010.2 |
| 20260507143004 | 72 | 39 | 6.0 | 12.0 | 0.00 | 0.00 | 0.00 | 58 | 1010.1 |
| 20260507142504 | 72 | 66 | 6.0 | 13.0 | 0.00 | 0.00 | 0.00 | 57 | 1010.1 |
| 20260507142003 | 72 | 49 | 6.0 | 12.0 | 0.00 | 0.00 | 0.00 | 57 | 1010.1 |
| 20260507141003 | 73 | 70 | 7.0 | 13.0 | 0.00 | 0.00 | 0.00 | 55 | 1010.1 |
| 20260507140503 | 73 | 80 | 4.0 | 12.0 | 0.00 | 0.00 | 0.00 | 55 | 1009.9 |
| 20260507135504 | 73 | 68 | 4.0 | 10.0 | 0.00 | 0.00 | 0.00 | 55 | 1010.1 |
| 20260507135004 | 73 | 59 | 3.0 | 9.0 | 0.00 | 0.00 | 0.00 | 56 | 1010.2 |
| 20260507134003 | 73 | 158 | 2.0 | 6.0 | 0.00 | 0.00 | 0.00 | 56 | 1010.5 |
| 20260507133504 | 73 | 157 | 3.0 | 6.0 | 0.00 | 0.00 | 0.00 | 56 | 1010.5 |
| 20260507132504 | 73 | 176 | 3.0 | 7.0 | 0.00 | 0.00 | 0.00 | 57 | 1010.5 |
| 20260507132004 | 73 | 179 | 5.0 | 7.0 | 0.00 | 0.00 | 0.00 | 56 | 1010.5 |
| 20260507131003 | 73 | 167 | 4.0 | 7.0 | 0.00 | 0.00 | 0.00 | 57 | 1010.7 |
| 20260507130504 | 73 | 155 | 2.0 | 5.0 | 0.00 | 0.00 | 0.00 | 56 | 1010.6 |
| 20260507130004 | 73 | 148 | 4.0 | 7.0 | 0.00 | 0.00 | 0.00 | 56 | 1010.6 |
| 20260507125004 | 73 | 120 | 3.0 | 8.0 | 0.00 | 0.00 | 0.00 | 57 | 1010.4 |
| 20260507124504 | 73 | 163 | 2.0 | 7.0 | 0.00 | 0.00 | 0.00 | 57 | 1010.6 |
| 20260507124004 | 73 | 175 | 3.0 | 6.0 | 0.00 | 0.01 | 0.00 | 57 | 1010.6 |
| 20260507123004 | 73 | 185 | 5.0 | 8.0 | 0.00 | 0.01 | 0.00 | 57 | 1010.7 |
| 20260507122504 | 73 | 163 | 5.0 | 7.0 | 0.00 | 0.02 | 0.00 | 56 | 1010.7 |
| 20260507121504 | 73 | 179 | 3.0 | 7.0 | 0.00 | 0.02 | 0.00 | 57 | 1010.7 |
| 20260507121004 | 73 | 158 | 5.0 | 7.0 | 0.00 | 0.02 | 0.00 | 57 | 1010.8 |
| 20260507120504 | 72 | 190 | 3.0 | 6.0 | 0.00 | 0.02 | 0.00 | 58 | 1010.8 |
| 20260507120005 | 72 | 182 | 3.0 | 9.0 | 0.00 | 0.02 | 0.00 | 58 | 1010.9 |
| 20260507115004 | 73 | 180 | 4.0 | 8.0 | 0.00 | 0.02 | 0.00 | 57 | 1010.8 |
| 20260507114004 | 73 | 170 | 3.0 | 7.0 | 0.00 | 0.02 | 0.00 | 58 | 1011.0 |
| 20260507113504 | 73 | 186 | 3.0 | 7.0 | 0.00 | 0.02 | 0.00 | 57 | 1011.1 |
| 20260507113004 | 73 | 182 | 3.0 | 8.0 | 0.00 | 0.02 | 0.00 | 55 | 1011.0 |
| 20260507112504 | 73 | 180 | 3.0 | 7.0 | 0.00 | 0.02 | 0.00 | 55 | 1011.0 |
| 20260507112004 | 73 | 163 | 4.0 | 9.0 | 0.00 | 0.02 | 0.00 | 55 | 1011.0 |
| 20260507111504 | 73 | 162 | 4.0 | 6.0 | 0.00 | 0.02 | 0.00 | 53 | 1011.1 |
| 20260507111004 | 74 | 152 | 4.0 | 8.0 | 0.00 | 0.02 | 0.00 | 54 | 1011.1 |
| 20260507110504 | 74 | 128 | 2.0 | 5.0 | 0.00 | 0.02 | 0.00 | 52 | 1011.2 |
| 20260507110003 | 74 | 133 | 3.0 | 6.0 | 0.00 | 0.02 | 0.00 | 54 | 1011.2 |
| 20260507105504 | 74 | 182 | 2.0 | 7.0 | 0.00 | 0.02 | 0.00 | 54 | 1011.3 |
| 20260507105004 | 74 | 147 | 4.0 | 7.0 | 0.00 | 0.02 | 0.00 | 53 | 1011.2 |
| 20260507104504 | 73 | 163 | 2.0 | 6.0 | 0.00 | 0.02 | 0.00 | 56 | 1011.2 |
| 20260507104004 | 73 | 153 | 4.0 | 7.0 | 0.00 | 0.02 | 0.00 | 58 | 1011.3 |
| 20260507103504 | 73 | 183 | 5.0 | 7.0 | 0.00 | 0.02 | 0.00 | 57 | 1011.4 |
| 20260507103004 | 73 | 183 | 3.0 | 6.0 | 0.00 | 0.02 | 0.00 | 58 | 1011.4 |
| 20260507102504 | 74 | 162 | 5.0 | 7.0 | 0.00 | 0.02 | 0.00 | 57 | 1011.5 |
| 20260507101503 | 74 | 175 | 3.0 | 8.0 | 0.00 | 0.02 | 0.00 | 58 | 1011.5 |
| 20260507101004 | 74 | 124 | 2.0 | 5.0 | 0.00 | 0.02 | 0.00 | 57 | 1011.5 |
| 20260507100504 | 73 | 130 | 3.0 | 7.0 | 0.00 | 0.02 | 0.00 | 55 | 1011.5 |
| 20260507100004 | 73 | 151 | 2.0 | 3.0 | 0.00 | 0.02 | 0.00 | 58 | 1011.5 |
| 20260507095004 | 73 | 172 | 3.0 | 7.0 | 0.00 | 0.02 | 0.00 | 60 | 1011.6 |
| 20260507094504 | 73 | 118 | 3.0 | 6.0 | 0.00 | 0.02 | 0.00 | 62 | 1011.5 |
| 20260507094004 | 72 | 109 | 2.0 | 3.0 | 0.00 | 0.02 | 0.00 | 61 | 1011.6 |
| 20260507093504 | 72 | 122 | 1.0 | 6.0 | 0.00 | 0.02 | 0.00 | 65 | 1011.7 |
| 20260507093004 | 71 | 125 | 3.0 | 6.0 | 0.00 | 0.02 | 0.00 | 66 | 1011.7 |
| 20260507092504 | 70 | 358 | 5.0 | 8.0 | 0.00 | 0.02 | 0.00 | 66 | 1011.8 |
| 20260507092003 | 70 | 23 | 3.0 | 7.0 | 0.00 | 0.02 | 0.00 | 69 | 1011.9 |
| 20260507091004 | 69 | 186 | 2.0 | 5.0 | 0.00 | 0.02 | 0.00 | 73 | 1012.0 |
| 20260507090504 | 68 | 161 | 2.0 | 5.0 | 0.00 | 0.02 | 0.00 | 73 | 1011.9 |
| 20260507090004 | 67 | 161 | 2.0 | 5.0 | 0.00 | 0.02 | 0.00 | 75 | 1011.9 |
| 20260507085503 | 67 | 160 | 2.0 | 6.0 | 0.00 | 0.02 | 0.00 | 75 | 1011.9 |
| 20260507085004 | 67 | 146 | 3.0 | 6.0 | 0.00 | 0.02 | 0.00 | 75 | 1012.1 |
| 20260507084503 | 67 | 179 | 4.0 | 7.0 | 0.00 | 0.02 | 0.00 | 76 | 1012.0 |
| 20260507083504 | 67 | 150 | 4.0 | 8.0 | 0.00 | 0.02 | 0.00 | 75 | 1011.9 |
| 20260507082504 | 68 | 114 | 5.0 | 9.0 | 0.00 | 0.02 | 0.00 | 71 | 1011.7 |
| 20260507082004 | 69 | 132 | 5.0 | 8.0 | 0.00 | 0.02 | 0.00 | 71 | 1011.7 |
| 20260507081504 | 68 | 144 | 2.0 | 3.0 | 0.00 | 0.02 | 0.00 | 71 | 1011.6 |
| 20260507081004 | 68 | 236 | 2.0 | 3.0 | 0.00 | 0.02 | 0.00 | 73 | 1011.6 |
| 20260507080503 | 67 | 254 | 1.0 | 3.0 | 0.00 | 0.02 | 0.00 | 74 | 1011.6 |
| 20260507075503 | 66 | 278 | 0.0 | 2.0 | 0.00 | 0.02 | 0.00 | 78 | 1011.6 |
| 20260507074504 | 65 | 278 | 0.0 | 0.0 | 0.00 | 0.02 | 0.00 | 81 | 1011.7 |
| 20260507074004 | 65 | 278 | 0.0 | 3.0 | 0.00 | 0.02 | 0.00 | 82 | 1011.7 |
| 20260507073503 | 64 | 278 | 0.0 | 2.0 | 0.00 | 0.02 | 0.00 | 83 | 1012.0 |
| 20260507072503 | 63 | 278 | 2.0 | 3.0 | 0.00 | 0.02 | 0.00 | 85 | 1012.2 |
| 20260507072004 | 63 | 278 | 1.0 | 3.0 | 0.00 | 0.02 | 0.00 | 86 | 1012.2 |
| 20260507071504 | 63 | 279 | 3.0 | 3.0 | 0.00 | 0.02 | 0.00 | 86 | 1012.0 |
| 20260507070504 | 62 | 315 | 2.0 | 3.0 | 0.00 | 0.02 | 0.00 | 87 | 1011.9 |
| 20260507065504 | 61 | 325 | 3.0 | 5.0 | 0.00 | 0.02 | 0.00 | 88 | 1011.9 |
| 20260507065003 | 61 | 299 | 4.0 | 7.0 | 0.00 | 0.02 | 0.00 | 88 | 1011.8 |
| 20260507064004 | 61 | 265 | 4.0 | 8.0 | 0.00 | 0.02 | 0.00 | 88 | 1011.8 |
| 20260507063504 | 60 | 286 | 3.0 | 6.0 | 0.00 | 0.02 | 0.00 | 89 | 1011.8 |
| 20260507061504 | 60 | 271 | 2.0 | 3.0 | 0.00 | 0.02 | 0.00 | 89 | 1011.5 |
| 20260507061004 | 60 | 271 | 3.0 | 7.0 | 0.00 | 0.02 | 0.00 | 89 | 1011.4 |
| 20260507060504 | 59 | 290 | 2.0 | 5.0 | 0.00 | 0.02 | 0.00 | 89 | 1011.4 |
| 20260507060004 | 59 | 281 | 5.0 | 7.0 | 0.00 | 0.02 | 0.00 | 89 | 1011.3 |
| 20260507055504 | 59 | 285 | 5.0 | 7.0 | 0.00 | 0.02 | 0.00 | 90 | 1011.3 |
| 20260507055004 | 59 | 275 | 3.0 | 6.0 | 0.00 | 0.02 | 0.00 | 90 | 1011.4 |
| 20260507054504 | 59 | 276 | 3.0 | 6.0 | 0.00 | 0.02 | 0.00 | 90 | 1011.4 |
| 20260507054004 | 58 | 267 | 3.0 | 7.0 | 0.00 | 0.02 | 0.00 | 90 | 1011.4 |
| 20260507053503 | 58 | 270 | 5.0 | 8.0 | 0.00 | 0.02 | 0.00 | 90 | 1011.4 |
| 20260507053005 | 58 | 294 | 4.0 | 7.0 | 0.00 | 0.02 | 0.00 | 90 | 1011.3 |
| 20260507052504 | 58 | 258 | 4.0 | 7.0 | 0.00 | 0.02 | 0.00 | 90 | 1011.4 |
| 20260507052003 | 58 | 284 | 5.0 | 8.0 | 0.00 | 0.02 | 0.00 | 90 | 1011.3 |
| 20260507051504 | 58 | 280 | 3.0 | 3.0 | 0.00 | 0.02 | 0.00 | 90 | 1011.1 |
| 20260507051003 | 58 | 282 | 2.0 | 3.0 | 0.00 | 0.02 | 0.00 | 90 | 1011.1 |
| 20260507050504 | 58 | 282 | 2.0 | 3.0 | 0.00 | 0.02 | 0.00 | 90 | 1011.0 |
| 20260507050003 | 58 | 281 | 2.0 | 6.0 | 0.00 | 0.02 | 0.00 | 90 | 1011.1 |
| 20260507045504 | 58 | 281 | 2.0 | 3.0 | 0.00 | 0.02 | 0.00 | 91 | 1011.0 |
| 20260507043004 | 58 | 279 | 2.0 | 3.0 | 0.00 | 0.02 | 0.00 | 90 | 1011.5 |
| 20260507042504 | 57 | 279 | 2.0 | 6.0 | 0.00 | 0.02 | 0.00 | 90 | 1011.5 |
| 20260507041004 | 58 | 295 | 5.0 | 8.0 | 0.00 | 0.02 | 0.00 | 89 | 1011.0 |
| 20260507040504 | 58 | 280 | 3.0 | 6.0 | 0.00 | 0.02 | 0.00 | 89 | 1010.8 |
| 20260507040004 | 58 | 291 | 2.0 | 3.0 | 0.00 | 0.02 | 0.00 | 89 | 1010.7 |
| 20260507035504 | 59 | 291 | 1.0 | 3.0 | 0.00 | 0.02 | 0.00 | 89 | 1010.9 |
| 20260507035004 | 59 | 288 | 2.0 | 3.0 | 0.00 | 0.02 | 0.00 | 89 | 1011.0 |
| 20260507034504 | 59 | 288 | 1.0 | 3.0 | 0.00 | 0.02 | 0.00 | 89 | 1011.1 |
| 20260507034004 | 59 | 288 | 1.0 | 3.0 | 0.00 | 0.02 | 0.00 | 89 | 1011.1 |
| 20260507033503 | 59 | 286 | 1.0 | 2.0 | 0.00 | 0.02 | 0.00 | 89 | 1011.2 |
| 20260507033004 | 59 | 287 | 1.0 | 3.0 | 0.00 | 0.02 | 0.00 | 89 | 1011.2 |
| 20260507032504 | 59 | 306 | 1.0 | 2.0 | 0.00 | 0.02 | 0.00 | 89 | 1011.1 |
| 20260507032004 | 59 | 306 | 1.0 | 3.0 | 0.00 | 0.02 | 0.00 | 89 | 1011.0 |
| 20260507031503 | 60 | 311 | 1.0 | 3.0 | 0.00 | 0.02 | 0.00 | 89 | 1011.0 |
| 20260507031004 | 60 | 43 | 2.0 | 3.0 | 0.00 | 0.02 | 0.00 | 89 | 1011.0 |
| 20260507030504 | 60 | 44 | 1.0 | 3.0 | 0.00 | 0.02 | 0.00 | 89 | 1011.2 |
| 20260507030004 | 60 | 44 | 0.0 | 0.0 | 0.00 | 0.02 | 0.00 | 89 | 1011.2 |
| 20260507025503 | 60 | 44 | 0.0 | 0.0 | 0.00 | 0.02 | 0.00 | 88 | 1011.3 |
| 20260507025004 | 60 | 44 | 0.0 | 1.0 | 0.00 | 0.02 | 0.00 | 88 | 1011.2 |
| 20260507024503 | 60 | 44 | 0.0 | 1.0 | 0.00 | 0.02 | 0.00 | 88 | 1011.2 |
| 20260507024004 | 60 | 44 | 0.0 | 3.0 | 0.00 | 0.02 | 0.00 | 88 | 1011.2 |
| 20260507023004 | 60 | 59 | 0.0 | 2.0 | 0.00 | 0.02 | 0.00 | 88 | 1011.1 |
| 20260507022504 | 60 | 59 | 1.0 | 2.0 | 0.00 | 0.02 | 0.00 | 88 | 1011.1 |
| 20260507022003 | 61 | 59 | 2.0 | 3.0 | 0.00 | 0.02 | 0.00 | 88 | 1011.2 |
| 20260507021504 | 61 | 286 | 0.0 | 2.0 | 0.00 | 0.02 | 0.00 | 88 | 1011.2 |
| 20260507021004 | 61 | 286 | 0.0 | 1.0 | 0.00 | 0.02 | 0.00 | 88 | 1011.2 |
| 20260507020504 | 61 | 286 | 0.0 | 1.0 | 0.00 | 0.02 | 0.00 | 88 | 1011.3 |
| 20260507015504 | 61 | 286 | 0.0 | 0.0 | 0.00 | 0.02 | 0.00 | 88 | 1011.2 |
| 20260507015004 | 61 | 286 | 0.0 | 1.0 | 0.00 | 0.02 | 0.00 | 88 | 1011.2 |
| 20260507014004 | 61 | 286 | 0.0 | 1.0 | 0.00 | 0.02 | 0.00 | 88 | 1011.3 |
| 20260507013004 | 62 | 286 | 0.0 | 2.0 | 0.00 | 0.02 | 0.00 | 88 | 1011.3 |
| 20260507012504 | 62 | 286 | 1.0 | 3.0 | 0.00 | 0.02 | 0.00 | 88 | 1011.3 |
| 20260507012003 | 62 | 286 | 2.0 | 3.0 | 0.00 | 0.02 | 0.00 | 88 | 1011.3 |
| 20260507011004 | 62 | 284 | 2.0 | 6.0 | 0.00 | 0.02 | 0.00 | 88 | 1011.5 |
| 20260507010004 | 62 | 289 | 3.0 | 7.0 | 0.00 | 0.02 | 0.00 | 88 | 1011.5 |
| 20260507005504 | 62 | 302 | 2.0 | 7.0 | 0.00 | 0.02 | 0.00 | 88 | 1011.6 |
| 20260507005003 | 62 | 289 | 3.0 | 6.0 | 0.00 | 0.02 | 0.00 | 88 | 1011.6 |
| 20260507004504 | 62 | 292 | 3.0 | 8.0 | 0.00 | 0.02 | 0.00 | 88 | 1011.6 |
| 20260507004003 | 62 | 289 | 2.0 | 3.0 | 0.00 | 0.02 | 0.00 | 88 | 1011.6 |
| 20260507003504 | 62 | 288 | 3.0 | 5.0 | 0.00 | 0.02 | 0.00 | 88 | 1011.6 |
| 20260507002504 | 62 | 292 | 2.0 | 6.0 | 0.00 | 0.02 | 0.00 | 89 | 1011.7 |
| 20260507002004 | 62 | 320 | 2.0 | 3.0 | 0.00 | 0.02 | 0.00 | 89 | 1011.7 |
| 20260507001504 | 62 | 322 | 1.0 | 5.0 | 0.00 | 0.02 | 0.00 | 89 | 1011.7 |
| 20260507001003 | 62 | 321 | 3.0 | 5.0 | 0.00 | 0.02 | 0.00 | 88 | 1011.9 |
| 20260507000504 | 62 | 320 | 2.0 | 3.0 | 0.00 | 0.02 | 0.00 | 88 | 1011.9 |
| 20260507000004 | 62 | 315 | 2.0 | 3.0 | 0.00 | 0.02 | 0.00 | 88 | 1012.1 |
| 20260506235504 | 62 | 315 | 1.0 | 3.0 | 0.00 | 0.02 | 0.00 | 88 | 1012.1 |
| 20260506235003 | 62 | 315 | 2.0 | 3.0 | 0.00 | 0.02 | 0.00 | 88 | 1012.2 |
| 20260506234504 | 62 | 315 | 2.0 | 3.0 | 0.00 | 0.02 | 0.00 | 88 | 1012.2 |
| 20260506234003 | 62 | 303 | 2.0 | 3.0 | 0.00 | 0.02 | 0.00 | 88 | 1012.2 |
| 20260506233504 | 62 | 303 | 1.0 | 3.0 | 0.00 | 0.02 | 0.00 | 88 | 1012.3 |
| 20260506233003 | 63 | 302 | 1.0 | 2.0 | 0.00 | 0.02 | 0.00 | 88 | 1012.4 |
| 20260506231504 | 63 | 302 | 1.0 | 3.0 | 0.00 | 0.02 | 0.00 | 88 | 1012.3 |
| 20260506231004 | 63 | 302 | 2.0 | 3.0 | 0.00 | 0.02 | 0.00 | 88 | 1012.4 |
| 20260506230003 | 63 | 302 | 1.0 | 3.0 | 0.00 | 0.02 | 0.00 | 88 | 1012.4 |
| 20260506225504 | 63 | 302 | 2.0 | 3.0 | 0.00 | 0.02 | 0.00 | 88 | 1012.4 |
| 20260506225003 | 63 | 340 | 2.0 | 3.0 | 0.00 | 0.02 | 0.00 | 88 | 1012.3 |
| 20260506224003 | 63 | 350 | 1.0 | 3.0 | 0.00 | 0.02 | 0.00 | 87 | 1012.1 |
| 20260506223504 | 63 | 351 | 3.0 | 5.0 | 0.00 | 0.02 | 0.00 | 87 | 1012.1 |
| 20260506223004 | 63 | 12 | 3.0 | 3.0 | 0.00 | 0.02 | 0.00 | 87 | 1012.1 |
| 20260506222504 | 64 | 16 | 1.0 | 3.0 | 0.00 | 0.02 | 0.00 | 87 | 1012.1 |
| 20260506221504 | 64 | 19 | 2.0 | 3.0 | 0.00 | 0.02 | 0.00 | 86 | 1012.1 |
| 20260506221004 | 64 | 22 | 1.0 | 3.0 | 0.00 | 0.02 | 0.00 | 86 | 1012.1 |
| 20260506220504 | 64 | 24 | 2.0 | 3.0 | 0.00 | 0.02 | 0.00 | 86 | 1012.1 |
| 20260506220003 | 64 | 112 | 1.0 | 3.0 | 0.00 | 0.02 | 0.00 | 86 | 1012.1 |
| 20260506215004 | 64 | 115 | 1.0 | 3.0 | 0.00 | 0.02 | 0.02 | 86 | 1012.1 |
| 20260506214504 | 64 | 114 | 2.0 | 3.0 | 0.00 | 0.02 | 0.02 | 86 | 1012.2 |
| 20260506214004 | 64 | 106 | 3.0 | 3.0 | 0.00 | 0.02 | 0.02 | 86 | 1012.2 |
| 20260506213504 | 64 | 125 | 2.0 | 7.0 | 0.00 | 0.02 | 0.02 | 86 | 1012.4 |
| 20260506213004 | 64 | 140 | 2.0 | 5.0 | 0.00 | 0.02 | 0.02 | 86 | 1012.4 |
| 20260506212503 | 64 | 133 | 2.0 | 9.0 | 0.00 | 0.02 | 0.02 | 86 | 1012.4 |
| 20260506212003 | 64 | 133 | 3.0 | 7.0 | 0.00 | 0.02 | 0.02 | 86 | 1012.4 |
| 20260506211504 | 64 | 132 | 3.0 | 9.0 | 0.00 | 0.02 | 0.02 | 86 | 1012.5 |
| 20260506210503 | 64 | 228 | 1.0 | 5.0 | 0.00 | 0.02 | 0.02 | 86 | 1012.4 |
| 20260506210004 | 64 | 228 | 2.0 | 3.0 | 0.00 | 0.02 | 0.02 | 86 | 1012.3 |
| 20260506205503 | 64 | 229 | 2.0 | 3.0 | 0.00 | 0.02 | 0.02 | 86 | 1012.2 |
| 20260506204504 | 64 | 207 | 1.0 | 3.0 | 0.00 | 0.02 | 0.02 | 86 | 1012.3 |
| 20260506204004 | 64 | 207 | 2.0 | 5.0 | 0.00 | 0.02 | 0.02 | 86 | 1012.2 |
| 20260506203504 | 64 | 236 | 2.0 | 6.0 | 0.00 | 0.02 | 0.02 | 86 | 1011.8 |
| 20260506203004 | 64 | 240 | 0.0 | 0.0 | 0.00 | 0.02 | 0.02 | 86 | 1011.8 |
| 20260506202504 | 64 | 240 | 0.0 | 2.0 | 0.00 | 0.02 | 0.02 | 86 | 1011.8 |
| 20260506201504 | 64 | 240 | 3.0 | 5.0 | 0.00 | 0.02 | 0.02 | 85 | 1011.8 |
| 20260506201004 | 64 | 245 | 2.0 | 3.0 | 0.00 | 0.02 | 0.02 | 85 | 1011.8 |
| 20260506200504 | 64 | 334 | 0.0 | 2.0 | 0.00 | 0.02 | 0.02 | 85 | 1011.7 |
| 20260506200004 | 64 | 334 | 1.0 | 3.0 | 0.00 | 0.02 | 0.02 | 85 | 1011.6 |
| 20260506195504 | 64 | 334 | 1.0 | 6.0 | 0.00 | 0.02 | 0.02 | 85 | 1011.2 |
| 20260506195004 | 64 | 315 | 3.0 | 7.0 | 0.00 | 0.02 | 0.02 | 85 | 1011.3 |
| 20260506194504 | 64 | 144 | 1.0 | 3.0 | 0.00 | 0.02 | 0.02 | 85 | 1011.4 |
| 20260506194004 | 64 | 144 | 0.0 | 3.0 | 0.00 | 0.02 | 0.02 | 85 | 1011.5 |
| 20260506193503 | 64 | 144 | 1.0 | 2.0 | 0.00 | 0.02 | 0.02 | 85 | 1011.5 |
| 20260506193003 | 64 | 144 | 1.0 | 3.0 | 0.00 | 0.02 | 0.02 | 85 | 1011.7 |
| 20260506192503 | 64 | 144 | 2.0 | 3.0 | 0.00 | 0.02 | 0.02 | 85 | 1011.7 |
| 20260506192003 | 64 | 144 | 1.0 | 5.0 | 0.00 | 0.02 | 0.02 | 85 | 1011.7 |
| 20260506191503 | 63 | 157 | 2.0 | 5.0 | 0.00 | 0.02 | 0.02 | 85 | 1011.7 |
| 20260506191003 | 63 | 144 | 3.0 | 6.0 | 0.00 | 0.02 | 0.02 | 85 | 1011.7 |
| 20260506190503 | 63 | 151 | 2.0 | 6.0 | 0.00 | 0.02 | 0.02 | 86 | 1011.8 |
| 20260506190004 | 63 | 163 | 3.0 | 6.0 | 0.00 | 0.02 | 0.02 | 86 | 1011.9 |
| 20260506185003 | 64 | 168 | 2.0 | 8.0 | 0.00 | 0.02 | 0.02 | 86 | 1012.0 |
| 20260506184503 | 64 | 157 | 4.0 | 10.0 | 0.00 | 0.02 | 0.02 | 85 | 1012.0 |
| 20260506184004 | 64 | 141 | 5.0 | 12.0 | 0.00 | 0.02 | 0.02 | 85 | 1012.1 |
| 20260506183004 | 64 | 147 | 5.0 | 12.0 | 0.00 | 0.02 | 0.02 | 85 | 1011.9 |
| 20260506182504 | 64 | 160 | 6.0 | 9.0 | 0.00 | 0.02 | 0.02 | 85 | 1011.7 |
| 20260506182004 | 65 | 164 | 5.0 | 12.0 | 0.00 | 0.02 | 0.02 | 85 | 1011.5 |
| 20260506181504 | 65 | 138 | 5.0 | 12.0 | 0.00 | 0.02 | 0.02 | 85 | 1011.4 |
| 20260506181004 | 65 | 134 | 5.0 | 10.0 | 0.00 | 0.02 | 0.02 | 85 | 1011.4 |
| 20260506180504 | 65 | 129 | 5.0 | 12.0 | 0.00 | 0.02 | 0.02 | 85 | 1011.2 |
| 20260506180005 | 65 | 140 | 7.0 | 15.0 | 0.00 | 0.02 | 0.02 | 86 | 1011.2 |
| 20260506175504 | 65 | 134 | 6.0 | 12.0 | 0.00 | 0.02 | 0.02 | 86 | 1011.1 |
| 20260506175004 | 66 | 124 | 5.0 | 12.0 | 0.00 | 0.02 | 0.02 | 87 | 1011.1 |
| 20260506174503 | 66 | 131 | 6.0 | 14.0 | 0.00 | 0.02 | 0.02 | 87 | 1011.1 |
| 20260506174003 | 66 | 135 | 2.0 | 12.0 | 0.00 | 0.02 | 0.02 | 87 | 1011.1 |
| 20260506173503 | 66 | 150 | 5.0 | 10.0 | 0.00 | 0.02 | 0.02 | 87 | 1011.0 |
| 20260506173004 | 66 | 135 | 5.0 | 10.0 | 0.00 | 0.02 | 0.02 | 87 | 1010.9 |
| 20260506172504 | 66 | 145 | 2.0 | 8.0 | 0.00 | 0.02 | 0.02 | 87 | 1010.8 |
| 20260506172004 | 66 | 156 | 4.0 | 8.0 | 0.00 | 0.02 | 0.02 | 86 | 1010.7 |
| 20260506171504 | 66 | 137 | 3.0 | 10.0 | 0.00 | 0.02 | 0.02 | 86 | 1010.7 |
| 20260506171004 | 66 | 150 | 3.0 | 7.0 | 0.00 | 0.02 | 0.02 | 86 | 1010.7 |
| 20260506170504 | 66 | 164 | 4.0 | 7.0 | 0.00 | 0.02 | 0.02 | 86 | 1010.7 |
| 20260506170004 | 66 | 159 | 3.0 | 6.0 | 0.00 | 0.02 | 0.02 | 86 | 1010.6 |
| 20260506165504 | 67 | 133 | 5.0 | 9.0 | 0.00 | 0.02 | 0.02 | 85 | 1010.6 |
| 20260506164504 | 67 | 124 | 3.0 | 9.0 | 0.00 | 0.02 | 0.02 | 85 | 1010.5 |